Helicity
52 64 56 50 62 63 53 30 16 8 -5 7 35 69 72 94 124 134 160 71 133 197 48 163 151 86 57 39 16 23 6 -13 -20 -20 -12 -3 14 12 7 7 19 2 2 15 28 10 19 14 14 13 -21 -12 -11 3
50 56 48 50 67 68 53 34 20 5 -2 -1 34 58 71 69 139 162 166 64 86 174 88 97 93 125 140 115 62 -8 60 21 -5 -11 -10 -4 14 18 27 5 6 7 -9 -1 -10 -22 -21 -6 -11 -13 -14 -8 11 5
35 46 47 58 75 73 54 35 21 10 11 9 28 52 73 66 148 156 172 139 117 167 77 110 83 94 97 118 111 41 46 29 6 62 12 -7 1 7 14 1 8 -9 -8 -1 6 1 9 -4 -4 19 10 16 24 38
33 43 47 67 74 69 53 34 23 6 6 12 24 49 68 49 143 151 127 156 166 226 162 56 81 95 97 81 70 109 51 65 30 6 17 4 -3 31 -5 -6 -11 -11 11 8 11 23 18 36 41 18 18 27 40 41
44 50 59 75 76 67 55 39 24 10 5 16 27 39 62 53 158 164 96 108 131 203 180 95 82 110 88 67 51 42 11 17 16 28 13 -14 4 7 -5 -10 -10 0 -4 12 31 49 42 69 57 28 64 52 42 43
42 51 69 74 76 69 54 42 21 8 8 14 21 37 76 85 165 210 137 61 129 143 220 140 78 107 85 65 54 60 59 55 60 43 25 20 0 -2 -3 -22 -17 16 32 39 57 68 97 74 38 27 49 47 42 44
60 67 73 78 72 63 50 43 13 -3 0 12 7 35 98 103 175 248 240 159 145 141 244 107 86 101 76 67 68 57 45 78 63 33 29 5 0 15 -8 -10 31 44 58 55 59 75 70 33 51 33 38 36 32 32
73 80 81 78 64 51 46 33 8 3 9 -7 18 50 124 169 238 119 199 137 91 140 260 159 96 101 87 78 99 89 53 54 61 43 22 -1 -1 11 -8 19 82 71 64 65 47 1 63 49 37 28 23 26 31 39
38 46 76 72 60 53 44 27 6 -1 -10 -4 7 110 88 165 193 111 96 49 76 147 164 127 104 124 125 122 90 107 104 61 47 21 10 1 -23 -16 -2 84 82 65 45 53 55 63 50 36 31 18 32 42 52 47
65 63 67 60 55 52 32 13 7 -12 -21 -34 64 159 213 146 120 68 124 115 105 87 116 162 102 81 88 94 136 110 103 68 23 34 26 -2 -32 0 48 78 69 49 60 72 59 49 42 46 34 51 53 50 46 27
67 64 66 64 55 36 20 19 -6 -31 -38 47 139 255 160 233 138 252 263 157 154 118 83 103 84 83 86 102 110 129 89 61 16 10 0 -31 -34 11 89 102 66 42 45 26 3 26 36 36 53 52 52 37 8 -28
62 57 51 48 40 23 9 -6 -35 -14 42 77 83 201 244 132 216 219 251 207 149 131 58 80 81 103 184 191 125 103 90 60 14 25 27 -15 -26 83 110 112 86 62 54 37 34 58 50 54 44 45 21 -8 -55 -52
55 50 41 39 24 12 -3 -23 -26 5 34 -92 149 260 211 97 221 224 238 192 157 103 95 98 115 118 175 182 148 108 56 35 28 8 15 -9 68 104 119 105 94 80 71 60 70 62 59 52 38 8 -19 -70 -55 -32
50 38 27 17 10 2 -1 -8 -12 25 -53 152 338 258 189 135 213 246 159 148 105 105 94 99 115 184 174 171 110 62 63 29 12 4 9 11 100 125 123 105 109 108 75 82 75 57 53 36 7 -39 -82 -46 -27 -24
41 30 15 8 6 7 0 -1 0 16 -46 190 185 263 157 206 150 203 203 194 96 100 121 143 161 129 196 138 113 61 31 33 21 7 -2 64 129 149 136 123 109 95 80 80 50 40 23 -6 -48 -84 -50 -33 -29 11
29 28 25 8 20 18 -2 0 14 25 -99 187 189 298 78 105 129 174 158 152 78 122 133 134 138 112 122 103 56 49 27 31 17 10 54 134 158 127 129 106 73 71 63 45 25 6 -19 -58 -86 -55 -32 -22 19 32
3 59 0 22 21 3 -5 37 22 -36 25 230 221 224 170 100 118 115 115 155 118 126 128 151 112 103 87 61 37 15 17 18 43 39 96 136 160 151 123 90 85 68 50 29 5 -37 -72 -91 -51 -24 1 21 29 30
10 23 23 -1 4 43 44 63 24 15 181 248 295 127 118 127 146 124 110 150 126 91 118 155 89 89 76 38 5 15 47 25 28 71 117 109 123 131 104 100 64 49 34 1 -39 -75 -91 -72 -35 -7 6 24 21 22
18 28 7 5 50 62 40 147 11 155 182 266 144 126 145 126 92 110 72 118 108 143 136 124 78 69 63 51 28 49 16 45 104 113 119 105 101 110 93 69 56 34 5 -36 -73 -110 -92 -44 -25 2 7 24 13 19
35 20 75 37 134 125 105 -77 -74 185 184 172 118 156 137 130 105 97 79 151 133 121 125 109 89 78 61 52 35 20 53 130 190 228 177 96 71 94 92 67 14 -10 -49 -78 -117 -112 -85 -59 -2 0 4 7 10 18
26 29 81 220 -10 167 92 46 76 282 165 142 103 156 137 91 86 69 113 141 116 127 90 80 62 52 58 40 33 51 93 105 128 224 314 234 102 90 52 5 -4 -46 -75 -117 -123 -115 -96 -76 -7 -13 3 12 -2 3
49 159 133 149 135 71 43 79 143 156 180 115 153 155 94 99 99 92 105 123 95 58 47 37 36 34 41 36 52 64 62 69 120 211 255 224 187 118 41 -2 -39 -73 -114 -123 -119 -102 -76 -81 -40 2 2 1 6 -2
213 308 292 79 34 40 122 185 296 214 157 151 195 177 121 127 109 108 114 70 33 32 1 -51 11 32 53 66 70 59 40 90 151 190 193 161 112 51 9 -32 -65 -99 -126 -129 -115 -92 -98 -116 -43 3 16 10 0 -3
307 217 153 187 63 200 245 288 259 252 158 213 204 138 88 115 115 146 78 43 42 28 -21 -22 33 61 80 77 70 68 69 72 119 139 145 160 115 44 -7 -36 -85 -121 -119 -104 -106 -107 -142 -99 -51 20 27 57 38 -9
222 180 156 -43 87 359 375 379 327 201 254 256 217 69 117 145 126 116 22 27 63 39 12 40 51 59 75 76 68 68 46 72 139 164 113 97 126 77 15 -35 -95 -134 -132 -132 -102 -120 -128 -114 -46 64 60 61 18 11
164 100 138 197 294 324 361 287 178 157 262 229 113 145 181 152 109 41 -7 57 61 56 58 54 60 64 61 56 67 63 57 66 66 122 122 118 104 122 134 101 7 -95 -142 -141 -98 -68 -82 -90 -59 17 58 41 43 48
127 73 95 231 291 236 330 266 193 196 154 58 107 174 140 69 57 26 67 73 53 75 70 66 64 63 69 77 71 65 57 43 51 80 88 101 75 45 86 130 78 -39 -88 -110 -104 -49 -30 -23 -3 42 74 73 53 49
139 229 228 271 300 322 304 240 198 119 65 43 118 117 60 53 47 61 124 123 81 122 92 87 89 81 82 87 92 100 110 103 109 98 94 86 44 22 23 20 -6 -18 -67 -90 -59 -14 0 26 33 60 84 80 80 68
248 225 199 395 370 302 202 173 153 100 89 61 100 116 107 113 102 113 152 186 136 154 139 136 116 106 118 113 104 121 158 229 246 206 208 213 164 70 23 42 78 7 0 10 -5 18 12 44 62 76 70 88 83 87
228 288 243 336 306 197 144 164 146 144 182 132 126 101 90 114 93 115 179 203 174 169 160 153 165 158 162 157 147 130 120 119 100 181 244 241 236 217 180 178 133 91 78 70 69 117 152 145 162 156 134 135 130 119
220 295 332 293 230 270 255 190 176 199 193 125 129 109 111 118 112 131 136 160 174 207 236 216 196 154 132 126 141 141 78 48 55 35 62 146 231 223 245 194 160 140 88 35 93 112 126 135 117 117 113 110 113 121
273 260 224 262 251 290 264 220 193 171 132 110 135 128 142 140 133 112 80 97 125 136 127 124 112 60 72 74 90 107 83 142 135 113 161 201 182 150 159 149 157 154 120 102 101 133 129 121 105 84 91 90 104 113
299 297 381 290 334 252 196 189 203 136 122 123 125 134 148 151 125 110 74 67 72 79 80 77 79 85 92 74 74 122 76 116 186 182 165 159 165 165 171 179 167 160 145 132 107 110 115 141 126 111 110 127 137 140
Wind_Speed
62 63 62 55 49 49 49 51 53 52 51 49 49 48 47 47 44 45 45 42 46 44 31 37 34 25 17 12 8 15 13 10 26 28 30 33 36 38 42 40 43 41 41 43 40 45 44 46 41 33 31 33 25 30
74 73 68 59 51 48 49 52 53 54 51 50 51 49 47 47 45 43 50 40 45 47 34 36 36 35 33 31 21 30 29 22 20 26 30 32 35 36 40 39 38 39 38 39 37 39 44 44 37 34 32 29 35 39
76 74 69 56 50 48 48 52 54 53 51 51 51 50 48 47 48 47 54 44 44 44 36 37 31 32 30 31 31 22 25 18 17 28 24 31 33 35 35 35 37 35 37 38 39 41 41 37 34 34 34 35 40 45
73 71 63 50 45 46 48 52 54 53 52 51 51 51 49 51 50 50 57 47 48 44 41 37 37 37 35 30 30 31 13 18 14 17 22 32 32 33 33 33 32 32 35 34 37 38 36 33 32 33 34 38 41 45
67 63 53 47 44 45 47 51 53 53 53 52 52 51 50 53 52 52 59 58 53 44 39 34 30 30 29 28 24 19 9 10 11 20 27 33 29 31 34 34 33 37 35 35 33 34 30 32 33 36 39 43 45 46
58 53 47 44 41 42 46 50 53 54 54 54 53 51 50 54 50 52 52 56 58 47 41 38 33 31 24 18 14 11 12 18 26 26 26 27 30 34 38 35 37 37 33 33 34 31 34 35 35 37 41 44 45 47
45 43 42 40 37 38 46 50 53 54 55 53 52 51 53 55 56 63 53 44 44 47 41 34 33 34 23 20 22 18 18 23 29 29 34 34 36 37 36 34 43 37 34 33 33 36 34 32 34 38 40 43 45 48
38 44 44 39 38 45 50 50 52 53 53 51 51 52 56 57 61 67 56 55 49 47 45 41 36 38 42 35 32 31 24 26 31 31 35 39 31 35 33 38 40 37 35 35 35 31 32 34 36 38 40 42 46 48
37 46 48 43 46 51 51 51 52 52 49 47 48 48 50 58 65 54 43 44 55 46 47 48 45 42 42 37 25 29 34 34 31 38 39 39 41 34 36 44 42 39 35 34 33 33 32 33 36 38 40 43 45 48
50 48 46 45 49 53 54 52 49 47 43 44 44 52 61 65 49 34 45 51 55 51 51 53 49 43 45 35 34 29 35 35 41 38 33 44 43 35 38 39 39 36 34 34 34 32 31 34 37 39 42 43 46 48
51 49 51 49 53 56 54 50 47 44 45 48 53 55 46 50 50 51 58 61 60 59 56 51 50 39 44 41 34 34 36 39 47 41 48 46 41 38 41 39 38 34 34 32 30 30 31 33 36 39 42 44 47 49
48 50 59 58 58 59 55 55 53 54 53 55 45 50 55 58 56 57 68 63 64 65 53 53 46 35 36 34 36 37 38 40 43 33 48 46 33 39 43 42 38 36 33 34 33 36 36 37 39 41 44 46 50 54
54 58 63 61 61 59 58 62 62 58 50 51 50 60 69 59 71 75 86 76 68 57 55 47 40 39 39 40 33 35 37 37 23 42 49 48 30 42 44 42 39 35 35 38 39 38 39 40 42 44 46 49 54 57
61 64 66 65 63 63 66 65 61 55 56 58 63 74 74 72 77 74 83 74 55 56 48 45 39 42 37 37 34 36 31 31 42 45 49 30 42 48 46 43 41 42 41 42 42 42 42 42 45 47 50 57 57 56
65 67 68 69 68 70 67 64 59 60 58 60 64 77 79 72 68 61 63 58 55 49 47 40 37 38 38 37 36 30 33 41 44 40 7 36 51 51 48 46 46 46 46 46 46 45 44 47 50 54 59 58 56 51
68 63 70 71 74 66 69 64 59 63 59 56 65 70 67 69 72 69 69 65 54 50 46 42 42 43 50 42 44 43 38 41 34 14 25 47 53 52 50 49 50 50 51 50 48 49 50 54 58 62 61 57 48 43
73 66 71 76 68 70 70 63 66 71 63 61 68 66 65 67 73 73 71 65 55 55 59 45 47 48 37 47 49 42 40 25 6 21 39 50 53 54 52 53 54 55 54 51 52 53 56 64 68 64 59 55 49 50
77 70 64 67 72 68 68 70 70 70 69 68 68 66 65 59 67 67 63 65 61 64 51 48 38 48 48 46 43 33 17 6 17 35 45 51 52 53 54 57 58 58 57 57 58 59 65 65 67 65 63 57 55 52
76 71 68 73 80 74 75 75 73 65 76 66 65 61 60 53 63 62 58 71 61 45 42 47 47 50 42 35 24 12 5 20 33 40 47 50 51 53 57 59 61 61 61 62 64 66 66 69 68 67 64 59 55 51
78 80 73 92 79 80 79 64 70 56 64 67 62 63 55 58 58 59 63 69 59 55 52 51 46 37 34 29 21 6 17 31 42 46 45 46 49 56 58 60 62 64 65 67 68 67 67 72 69 66 63 59 56 52
77 88 87 97 100 75 64 58 75 62 61 65 59 53 54 56 58 57 65 64 63 60 54 46 37 33 33 28 15 9 24 36 40 43 56 56 54 53 58 60 65 67 68 72 70 68 70 70 71 66 63 59 54 52
79 89 90 104 78 68 54 60 60 64 66 64 57 52 57 61 59 59 60 67 64 59 49 43 36 33 30 21 12 14 30 34 32 33 38 49 53 54 58 63 68 69 72 73 70 69 72 72 72 68 63 58 55 53
79 89 88 77 64 59 54 59 67 64 68 67 58 58 59 57 58 56 60 70 54 50 46 39 32 29 22 16 15 23 31 30 32 37 46 46 44 48 53 61 66 69 71 71 68 70 71 71 74 69 59 61 57 53
77 88 66 76 58 57 61 65 62 60 60 64 64 65 60 57 60 59 62 66 53 47 45 38 30 23 21 19 21 24 24 26 32 37 45 43 43 45 49 56 61 67 69 69 66 67 68 74 76 67 61 48 51 55
77 80 64 67 55 68 72 70 68 67 72 65 64 64 61 56 62 63 64 62 58 52 45 41 37 35 29 25 22 21 21 28 34 46 40 41 39 39 44 47 55 61 63 64 65 61 63 68 75 53 45 48 16 53
70 74 66 68 73 79 78 75 75 73 68 63 61 55 56 58 61 63 64 64 63 56 51 47 40 35 33 33 25 23 23 25 36 39 40 39 40 43 45 47 50 55 59 59 58 56 57 55 42 16 28 24 25 22
65 76 71 69 68 71 64 59 65 65 67 65 64 61 59 62 64 59 52 57 61 54 50 47 43 39 33 27 21 17 19 27 34 32 32 31 30 37 40 43 48 50 50 53 52 56 50 47 35 18 19 21 16 15
61 68 81 78 74 67 67 68 66 70 63 59 61 64 64 63 58 53 53 55 51 42 41 39 37 33 25 20 18 18 17 21 22 14 18 17 22 25 29 27 28 31 39 41 42 45 41 36 33 22 18 18 19 21
64 65 67 66 64 61 65 64 66 60 56 63 59 57 56 50 46 50 51 55 48 40 36 34 31 23 17 15 15 16 21 25 32 33 32 28 28 28 26 24 19 30 30 27 32 34 34 31 27 22 19 22 24 23
68 58 60 61 64 68 62 59 59 54 50 48 46 47 44 43 38 41 50 56 53 49 39 34 27 23 20 21 19 17 14 20 23 29 30 32 30 23 24 20 21 24 26 28 29 25 21 20 20 22 24 32 33 32
58 58 56 53 55 55 51 48 45 45 43 42 42 46 45 41 39 41 48 51 50 43 36 31 27 23 21 23 25 25 25 16 13 15 9 9 15 20 19 21 21 23 27 30 31 33 32 29 27 25 26 30 34 35
53 57 61 58 54 52 47 44 44 44 40 43 43 41 41 41 43 45 48 46 49 48 46 35 27 24 25 20 13 13 7 17 12 12 13 13 15 19 20 19 18 20 25 30 33 36 37 36 34 31 30 31 35 40
47 46 52 51 53 52 45 44 45 43 39 43 43 41 40 40 43 42 42 44 49 47 43 39 33 26 23 15 11 13 4 10 12 10 12 13 13 12 11 15 18 20 24 27 31 34 38 39 39 38 36 37 40 44
Wind_Direction
253 248 245 243 244 244 246 249 251 255 258 262 262 264 264 256 257 248 242 246 242 245 256 246 248 249 256 277 82 99 67 29 92 80 77 74 77 83 86 103 107 108 110 109 116 112 117 139 144 142 139 109 125 50
241 238 238 238 237 239 243 246 248 251 256 259 258 261 260 254 253 248 237 245 241 241 256 248 248 249 248 257 270 125 273 98 63 72 85 86 91 103 105 103 117 111 113 109 116 116 118 125 129 116 94 85 38 27
235 233 233 232 232 235 240 243 246 249 255 256 255 256 257 252 246 242 234 241 237 239 241 238 241 247 257 256 256 252 275 301 333 264 47 88 104 114 120 118 107 107 108 104 103 104 107 107 94 59 40 29 20 12
231 231 230 227 228 233 238 241 244 248 251 253 254 253 255 247 243 241 229 235 235 239 238 240 239 243 252 253 253 259 320 279 317 345 350 109 106 145 123 123 118 114 111 107 94 98 86 72 53 44 47 33 23 19
230 228 224 223 226 232 238 241 242 246 248 251 251 251 253 242 241 240 230 231 232 236 237 230 236 252 249 251 258 271 334 352 349 316 260 170 84 115 122 124 129 129 128 126 121 93 83 70 56 46 34 24 20 19
229 224 220 221 224 232 237 241 242 244 246 248 249 249 250 235 236 227 224 226 225 231 233 228 241 242 245 252 256 274 297 295 276 282 276 296 98 165 160 155 139 129 99 77 96 71 67 66 61 48 36 29 27 24
221 217 217 218 222 230 236 241 242 243 244 247 247 248 241 232 229 215 221 225 229 229 229 228 232 234 234 245 249 269 284 276 265 266 247 233 191 186 172 138 130 116 101 82 79 80 76 76 51 41 36 35 35 32
220 220 217 216 222 230 234 240 241 242 243 244 245 248 232 233 229 221 227 221 221 226 232 230 233 226 229 232 239 250 264 261 261 257 241 214 226 204 150 125 112 104 96 91 89 60 61 53 43 35 34 33 32 30
211 215 215 218 224 229 233 237 240 241 240 242 246 233 229 219 211 219 224 227 218 233 229 227 223 227 227 230 244 246 248 249 260 238 232 214 186 159 138 119 115 109 99 93 80 67 58 47 37 34 35 33 33 34
214 215 216 219 225 228 231 234 238 236 236 239 223 218 215 210 212 214 218 212 221 229 229 227 222 227 218 223 234 242 246 245 234 242 248 202 182 226 115 113 110 103 94 87 85 76 63 47 41 39 38 40 41 39
214 215 218 221 224 225 227 230 230 228 228 214 214 215 215 201 208 219 214 213 219 222 223 222 219 216 218 224 226 244 240 239 226 237 209 190 170 134 121 115 112 99 93 84 68 72 56 58 53 52 50 48 46 48
215 217 217 220 221 221 224 224 221 218 215 213 222 222 201 204 215 215 211 215 217 216 216 212 211 210 220 228 234 238 238 235 234 248 217 196 152 125 126 121 110 104 87 78 72 72 70 64 63 61 59 56 59 67
216 216 215 217 217 220 221 216 214 215 220 219 217 204 198 212 211 210 206 208 211 209 208 200 200 215 220 230 236 240 241 243 264 235 218 201 114 127 125 119 111 99 89 86 82 76 74 71 68 67 67 70 73 78
213 213 214 215 216 218 214 212 213 212 209 210 204 200 207 210 211 212 206 205 208 205 198 197 206 217 223 227 237 238 250 250 239 237 207 119 130 131 125 119 112 106 101 96 90 86 81 76 76 77 78 92 92 83
214 213 213 213 214 212 212 210 210 209 209 208 209 204 209 213 210 211 203 201 205 199 193 196 215 222 220 231 237 245 244 241 238 245 15 120 129 128 124 119 114 111 108 103 99 93 87 88 90 90 103 104 96 110
213 213 213 212 212 217 208 208 210 208 210 215 212 210 211 208 205 205 201 199 200 194 193 211 218 221 223 230 229 232 241 241 252 287 101 123 126 125 122 119 117 114 111 108 103 100 98 101 104 108 114 116 134 134
207 213 212 212 215 209 206 206 204 203 209 215 211 216 211 206 203 202 200 198 195 196 202 216 217 220 226 228 225 234 239 262 329 90 114 124 125 124 121 118 118 117 115 110 108 107 108 114 123 124 140 142 141 132
208 213 216 211 206 202 204 204 202 206 213 215 211 208 206 209 203 200 202 198 200 203 213 219 226 223 224 227 231 240 260 308 87 109 118 122 122 121 120 120 120 120 117 116 115 114 117 118 126 145 146 146 139 130
211 211 208 205 199 198 196 200 204 209 214 214 211 209 208 207 204 206 204 199 204 216 221 222 225 224 231 237 239 237 124 111 115 116 119 122 122 121 121 121 122 122 122 123 122 123 123 133 145 153 151 148 142 135
214 211 213 198 201 196 196 205 204 220 208 205 206 204 208 205 202 205 201 200 208 214 220 223 228 235 236 240 243 181 121 123 124 121 122 124 124 125 125 125 126 128 127 128 128 127 129 139 159 161 156 155 148 141
213 210 206 201 192 202 200 208 208 219 205 201 201 206 205 203 203 203 200 204 210 215 220 225 234 241 239 243 237 154 126 132 132 130 130 130 130 126 127 128 130 133 133 136 134 134 137 138 163 166 166 161 158 147
204 197 187 182 194 197 220 217 210 203 202 199 201 206 201 201 202 203 205 209 213 218 224 227 237 240 234 231 203 149 133 131 129 127 127 127 128 130 132 134 138 139 141 142 140 139 143 147 161 172 173 171 166 153
177 176 179 195 196 209 213 203 200 200 198 199 202 202 203 205 206 205 211 210 218 222 223 228 237 235 226 206 173 143 138 136 135 133 133 130 128 129 131 137 142 143 143 145 143 145 147 148 166 177 188 176 173 166
177 181 192 187 205 210 204 200 199 197 197 201 202 201 203 207 205 212 212 211 217 217 218 223 226 213 203 189 167 157 153 144 135 134 135 134 134 134 135 138 142 147 147 146 144 146 148 156 168 189 194 207 199 166
182 191 194 205 215 202 196 193 196 197 197 198 199 202 205 207 208 210 212 213 212 214 215 218 215 211 201 192 179 174 158 146 139 139 139 139 136 133 136 138 143 148 148 148 149 146 148 153 168 212 220 219 234 198
188 193 205 205 199 195 193 193 196 194 193 198 202 204 205 208 209 214 214 210 209 211 213 211 208 204 207 207 191 176 161 148 140 140 141 143 145 145 144 144 147 151 153 152 150 150 151 150 147 183 233 240 252 269
197 203 207 207 200 195 195 198 194 198 199 203 203 203 207 209 212 214 215 210 208 211 211 210 210 211 209 203 198 182 157 144 142 139 139 145 148 150 151 151 154 153 151 154 154 157 156 156 157 194 230 246 259 276
208 200 195 193 194 196 194 194 199 199 205 204 201 207 207 211 212 213 212 208 207 205 206 209 213 215 208 197 186 166 157 144 141 142 139 149 151 155 154 157 158 158 156 157 159 160 163 165 168 182 213 234 258 273
198 193 191 187 192 196 199 202 201 204 204 202 206 209 211 216 220 216 213 208 205 202 202 204 210 206 194 188 181 172 154 148 145 149 150 153 157 162 162 166 182 172 170 171 168 168 170 176 184 199 221 250 262 274
191 195 191 191 193 197 202 205 204 205 209 211 216 214 217 220 227 223 212 208 207 210 211 209 202 194 184 167 168 187 193 160 160 158 155 158 161 160 162 174 176 179 183 184 182 188 193 201 219 238 245 259 266 274
195 193 190 192 196 198 200 199 203 204 211 217 217 215 216 221 224 220 214 213 213 210 206 206 205 202 170 158 152 151 156 202 206 168 192 173 162 164 171 174 178 182 188 189 192 193 198 202 209 223 238 251 263 271
197 197 194 195 194 196 201 206 204 206 213 212 212 216 216 218 216 216 217 216 212 212 217 214 207 205 223 229 207 238 226 158 179 183 175 170 159 160 171 177 184 191 193 196 200 201 203 208 214 220 236 250 263 272
193 194 192 194 197 201 205 204 206 208 213 213 215 218 220 222 218 220 221 221 219 219 221 223 227 226 229 225 193 249 215 155 171 181 175 174 174 175 187 195 192 195 198 204 207 210 210 218 224 229 240 256 267 274